| time (UTC) | temp F | wind direction | speed knots | gust knots | rain 1hr in | rain 24hr in | rain mn in | humidity % | barometer mb |
| 20260504130539 | 38 | 0.0 | 0.0 | 0.00 | 0.00 | 0.00 | 97 | 1012.9 | |
| 20260504110636 | 41 | 0.0 | 0.0 | 0.00 | 0.00 | 0.00 | 89 | 1012.4 | |
| 20260504100531 | 43 | 90 | 0.0 | 0.9 | 0.00 | 0.00 | 0.00 | 85 | 1012.5 |
| 20260504081518 | 47 | 60 | 0.9 | 1.7 | 0.00 | 0.00 | 0.00 | 73 | 1012.1 |
| 20260504080523 | 47 | 0.0 | 0.0 | 0.00 | 0.00 | 0.00 | 70 | 1012.0 | |
| 20260504050533 | 57 | 23 | 0.9 | 1.7 | 0.00 | 0.00 | 0.00 | 53 | 1011.4 |
| 20260504045528 | 58 | 16 | 0.9 | 2.6 | 0.00 | 0.00 | 0.00 | 51 | 1011.4 |
| 20260504044548 | 58 | 17 | 0.9 | 2.6 | 0.00 | 0.00 | 0.00 | 50 | 1011.3 |
| 20260504043531 | 59 | 0.0 | 0.0 | 0.00 | 0.00 | 0.00 | 49 | 1011.0 | |
| 20260504042549 | 60 | 28 | 0.9 | 1.7 | 0.00 | 0.00 | 0.00 | 48 | 1011.0 |
| 20260504041529 | 61 | 26 | 0.9 | 1.7 | 0.00 | 0.00 | 0.00 | 47 | 1010.9 |
| 20260504040524 | 63 | 42 | 0.9 | 1.7 | 0.00 | 0.00 | 0.00 | 45 | 1010.9 |
| 20260504035518 | 64 | 19 | 0.9 | 1.7 | 0.00 | 0.00 | 0.00 | 43 | 1010.9 |
| 20260504034547 | 66 | 338 | 0.0 | 1.7 | 0.00 | 0.00 | 0.00 | 40 | 1010.7 |
| 20260504033548 | 68 | 23 | 0.0 | 0.9 | 0.00 | 0.00 | 0.00 | 38 | 1010.5 |
| 20260504032525 | 69 | 0.0 | 0.0 | 0.00 | 0.00 | 0.00 | 36 | 1010.5 | |
| 20260504031521 | 71 | 0.0 | 0.9 | 0.00 | 0.00 | 0.00 | 35 | 1010.5 | |
| 20260504030518 | 73 | 270 | 0.0 | 1.7 | 0.00 | 0.00 | 0.00 | 34 | 1010.5 |
| 20260504025519 | 74 | 256 | 0.9 | 2.6 | 0.00 | 0.00 | 0.00 | 32 | 1010.5 |
| 20260504024519 | 76 | 277 | 1.7 | 1.7 | 0.00 | 0.00 | 0.00 | 31 | 1010.5 |
| 20260504023519 | 76 | 261 | 1.7 | 5.2 | 0.00 | 0.00 | 0.00 | 31 | 1010.5 |
| 20260504022519 | 77 | 27 | 1.7 | 2.6 | 0.00 | 0.00 | 0.00 | 31 | 1010.6 |
| 20260504021521 | 77 | 320 | 1.7 | 3.5 | 0.00 | 0.00 | 0.00 | 30 | 1010.6 |
| 20260504020540 | 78 | 23 | 1.7 | 3.5 | 0.00 | 0.00 | 0.00 | 29 | 1010.6 |
| 20260504015517 | 77 | 274 | 1.7 | 4.3 | 0.00 | 0.00 | 0.00 | 29 | 1010.7 |
| 20260504014530 | 77 | 271 | 2.6 | 4.3 | 0.00 | 0.00 | 0.00 | 29 | 1010.8 |
| 20260504013525 | 78 | 272 | 3.5 | 6.1 | 0.00 | 0.00 | 0.00 | 28 | 1010.9 |
| 20260504012520 | 77 | 290 | 3.5 | 5.2 | 0.00 | 0.00 | 0.00 | 28 | 1011.0 |
| 20260504011516 | 78 | 268 | 2.6 | 5.2 | 0.00 | 0.00 | 0.00 | 28 | 1011.0 |
| 20260504010516 | 78 | 161 | 2.6 | 6.1 | 0.00 | 0.00 | 0.00 | 29 | 1011.1 |
| 20260504005519 | 77 | 276 | 2.6 | 4.3 | 0.00 | 0.00 | 0.00 | 28 | 1011.1 |
| 20260504004516 | 80 | 330 | 3.5 | 5.2 | 0.00 | 0.00 | 0.00 | 27 | 1011.2 |
| 20260504003516 | 81 | 337 | 3.5 | 6.1 | 0.00 | 0.00 | 0.00 | 27 | 1011.3 |
| 20260504002610 | 81 | 240 | 3.5 | 6.1 | 0.00 | 0.00 | 0.00 | 28 | 1011.4 |
| 20260504001522 | 81 | 279 | 3.5 | 6.1 | 0.00 | 0.00 | 0.00 | 28 | 1011.5 |
| 20260504000523 | 80 | 314 | 3.5 | 7.8 | 0.00 | 0.00 | 0.00 | 29 | 1011.6 |
| 20260503235516 | 81 | 316 | 4.3 | 6.1 | 0.00 | 0.00 | 0.00 | 29 | 1011.7 |
| 20260503234516 | 81 | 326 | 3.5 | 5.2 | 0.00 | 0.00 | 0.00 | 29 | 1011.7 |
| 20260503233516 | 81 | 260 | 3.5 | 5.2 | 0.00 | 0.00 | 0.00 | 30 | 1011.8 |
| 20260503232527 | 81 | 351 | 4.3 | 7.0 | 0.00 | 0.00 | 0.00 | 29 | 1012.0 |
| 20260503231519 | 80 | 246 | 3.5 | 4.3 | 0.00 | 0.00 | 0.00 | 30 | 1012.2 |
| 20260503230532 | 81 | 300 | 3.5 | 7.0 | 0.00 | 0.00 | 0.00 | 29 | 1012.2 |
| 20260503225532 | 81 | 16 | 4.3 | 7.8 | 0.00 | 0.00 | 0.00 | 29 | 1012.3 |
| 20260503224551 | 81 | 353 | 3.5 | 6.1 | 0.00 | 0.00 | 0.00 | 29 | 1012.4 |
| 20260503223532 | 81 | 313 | 3.5 | 4.3 | 0.00 | 0.00 | 0.00 | 28 | 1012.6 |
| 20260503222526 | 81 | 263 | 3.5 | 6.1 | 0.00 | 0.00 | 0.00 | 29 | 1012.6 |
| 20260503221517 | 80 | 260 | 4.3 | 7.8 | 0.00 | 0.00 | 0.00 | 28 | 1012.6 |
| 20260503220614 | 80 | 262 | 3.5 | 5.2 | 0.00 | 0.00 | 0.00 | 28 | 1012.7 |
| 20260503215526 | 81 | 319 | 3.5 | 7.0 | 0.00 | 0.00 | 0.00 | 27 | 1012.9 |
| 20260503214529 | 80 | 318 | 4.3 | 6.1 | 0.00 | 0.00 | 0.00 | 27 | 1013.0 |
| 20260503213521 | 81 | 260 | 2.6 | 4.3 | 0.00 | 0.00 | 0.00 | 27 | 1013.0 |
| 20260503212522 | 81 | 268 | 3.5 | 7.8 | 0.00 | 0.00 | 0.00 | 28 | 1013.1 |
| 20260503211521 | 80 | 281 | 3.5 | 7.0 | 0.00 | 0.00 | 0.00 | 28 | 1013.2 |
| 20260503210522 | 80 | 282 | 4.3 | 8.7 | 0.00 | 0.00 | 0.00 | 28 | 1013.3 |
| 20260503205522 | 81 | 314 | 3.5 | 6.1 | 0.00 | 0.00 | 0.00 | 28 | 1013.3 |
| 20260503204522 | 80 | 358 | 2.6 | 5.2 | 0.00 | 0.00 | 0.00 | 29 | 1013.4 |
| 20260503203546 | 80 | 49 | 3.5 | 7.0 | 0.00 | 0.00 | 0.00 | 31 | 1013.5 |
| 20260503202518 | 80 | 309 | 2.6 | 4.3 | 0.00 | 0.00 | 0.00 | 30 | 1013.8 |
| 20260503201535 | 79 | 293 | 4.3 | 7.8 | 0.00 | 0.00 | 0.00 | 30 | 1013.8 |
| 20260503200612 | 78 | 272 | 3.5 | 5.2 | 0.00 | 0.00 | 0.00 | 32 | 1013.9 |
| 20260503195526 | 78 | 259 | 2.6 | 3.5 | 0.00 | 0.00 | 0.00 | 33 | 1013.9 |
| 20260503194521 | 78 | 272 | 2.6 | 4.3 | 0.00 | 0.00 | 0.00 | 34 | 1013.9 |
| 20260503193543 | 78 | 286 | 2.6 | 4.3 | 0.00 | 0.00 | 0.00 | 34 | 1014.1 |
| 20260503192517 | 77 | 262 | 4.3 | 6.1 | 0.00 | 0.00 | 0.00 | 35 | 1014.2 |
| 20260503191540 | 77 | 138 | 3.5 | 4.3 | 0.00 | 0.00 | 0.00 | 35 | 1014.5 |
| 20260503190517 | 76 | 185 | 2.6 | 4.3 | 0.00 | 0.00 | 0.00 | 36 | 1014.7 |
| 20260503185517 | 75 | 168 | 1.7 | 3.5 | 0.00 | 0.00 | 0.00 | 37 | 1014.8 |
| 20260503184520 | 77 | 39 | 3.5 | 7.0 | 0.00 | 0.00 | 0.00 | 36 | 1014.9 |
| 20260503183521 | 76 | 244 | 3.5 | 4.3 | 0.00 | 0.00 | 0.00 | 36 | 1014.9 |
| 20260503182603 | 74 | 254 | 1.7 | 3.5 | 0.00 | 0.00 | 0.00 | 38 | 1015.2 |
| 20260503181531 | 74 | 211 | 3.5 | 8.7 | 0.00 | 0.00 | 0.00 | 37 | 1015.2 |
| 20260503180534 | 73 | 239 | 3.5 | 4.3 | 0.00 | 0.00 | 0.00 | 37 | 1015.2 |
| 20260503175532 | 73 | 248 | 2.6 | 3.5 | 0.00 | 0.00 | 0.00 | 38 | 1015.3 |
| 20260503174532 | 72 | 270 | 2.6 | 4.3 | 0.00 | 0.00 | 0.00 | 39 | 1015.6 |
| 20260503173535 | 70 | 245 | 2.6 | 5.2 | 0.00 | 0.00 | 0.00 | 41 | 1015.9 |
| 20260503172536 | 69 | 229 | 2.6 | 5.2 | 0.00 | 0.00 | 0.00 | 42 | 1015.9 |
| 20260503171536 | 68 | 262 | 2.6 | 4.3 | 0.00 | 0.00 | 0.00 | 43 | 1016.0 |
| 20260503170527 | 67 | 138 | 0.9 | 1.7 | 0.00 | 0.00 | 0.00 | 45 | 1016.1 |
| 20260503150542 | 46 | 156 | 2.6 | 3.5 | 0.00 | 0.00 | 0.00 | 77 | 1017.1 |